Weather History for KBVS - December, 2012

Change the Weather History Date:

Sunday, December 9, 2012

  Actual Average (KBLI) Record (KBLI)
Temperature  
Mean Temperature 38 °F 38 °F  
Max Temperature 39 °F 45 °F 58 °F (1950)
Min Temperature 37 °F 32 °F 11 °F (1972)
Degree Days  
Heating Degree Days 27 27  
Month to date heating degree days 233  
Cooling Degree Days 0 0  
Month to date cooling degree days 0  
Year to date cooling degree days 42  
Moisture  
Dew Point 37 °F    
Average Humidity 97    
Maximum Humidity 100    
Minimum Humidity 87    
Precipitation  
Precipitation 0.06 in 0.14 in 1.13 in (1956)
Month to date precipitation 1.42  
Year to date precipitation 33.03  
Sea Level Pressure  
Sea Level Pressure 30.35 in    
Wind  
Wind Speed 6 mph (ENE)    
Max Wind Speed 14 mph    
Max Gust Speed 17 mph    
Visibility 6 miles    
Events      
T = Trace of Precipitation, MM = Missing Value Source: NWS Daily Summary

Daily Weather History Graph

Daily Weather History Graph

Search for Another Location

Airport or City:

Trip Planner

Search our weather history database for the weather conditions in past years. The results will help you decide how hot, cold, wet, or windy it might be!

Date:

Astronomy

Dec. 09, 2012 Rise Set
Actual Time 7:50 AM PST 4:14 PM PST
Civil Twilight 7:13 AM PST 4:51 PM PST
Nautical Twilight 6:33 AM PST 5:30 PM PST
Astronomical Twilight 5:55 AM PST 6:09 PM PST
Moon 3:14 AM PST (12/9) 1:37 PM PST (12/9)
Length of Visible Light 9h 37m
Length of Day
8h 24m
Waning Crescent, 17% of the Moon is Illuminated
Dec 9
Waning Crescent
Dec 13
New
Dec 19
First Quarter
Dec 28
Full
Jan 4
Last Quarter

Hourly Weather History & Observations

Time (PST) Temp. Windchill Dew Point Humidity Pressure Visibility Wind Dir Wind Speed Gust Speed Precip Events Conditions
12:15 AM 37.4 °F 32.8 °F 35.6 °F 93% 30.37 in 10.0 mi ENE 5.8 mph - 0.00 in   Clear
12:55 AM 37.4 °F - 35.6 °F 93% 30.35 in 10.0 mi Calm Calm - 0.00 in   Clear
1:15 AM 37.4 °F 34.9 °F 35.6 °F 93% 30.35 in 10.0 mi ENE 3.5 mph - 0.00 in   Mostly Cloudy
1:35 AM 37.4 °F 32.8 °F 35.6 °F 93% 30.37 in 10.0 mi NE 5.8 mph - 0.00 in   Overcast
1:55 AM 37.4 °F 33.8 °F 35.6 °F 93% 30.37 in 10.0 mi ENE 4.6 mph - 0.00 in   Overcast
2:15 AM 37.4 °F 33.8 °F 35.6 °F 93% 30.37 in 10.0 mi ENE 4.6 mph - 0.00 in   Overcast
2:35 AM 37.4 °F 33.8 °F 35.6 °F 93% 30.38 in 10.0 mi ENE 4.6 mph - 0.00 in   Overcast
2:55 AM 37.4 °F 32.8 °F 35.6 °F 93% 30.38 in 10.0 mi NE 5.8 mph - 0.00 in   Overcast
3:15 AM 37.4 °F 32.8 °F 35.6 °F 93% 30.38 in 10.0 mi NE 5.8 mph - 0.00 in   Overcast
3:35 AM 37.4 °F 33.8 °F 35.6 °F 93% 30.37 in 10.0 mi ENE 4.6 mph - 0.00 in   Overcast
3:55 AM 37.4 °F 33.8 °F 35.6 °F 93% 30.37 in 10.0 mi ENE 4.6 mph - 0.00 in   Overcast
4:15 AM 37.4 °F 34.9 °F 35.6 °F 93% 30.37 in 10.0 mi ENE 3.5 mph - 0.00 in   Overcast
4:35 AM 37.4 °F - 35.6 °F 93% 30.37 in 10.0 mi Calm Calm - 0.00 in   Overcast
4:55 AM 37.4 °F - 35.6 °F 93% 30.37 in 10.0 mi Calm Calm - 0.00 in   Overcast
5:15 AM 37.4 °F 32.8 °F 35.6 °F 93% 30.37 in 10.0 mi East 5.8 mph - 0.00 in   Overcast
5:35 AM 37.4 °F 32.8 °F 35.6 °F 93% 30.38 in 10.0 mi ENE 5.8 mph - 0.00 in   Mostly Cloudy
5:55 AM 37.4 °F 32.8 °F 35.6 °F 93% 30.37 in 10.0 mi East 5.8 mph - 0.00 in   Partly Cloudy
6:15 AM 37.4 °F 31.4 °F 35.6 °F 93% 30.36 in 10.0 mi ENE 8.1 mph - 0.00 in   Clear
6:35 AM 37.4 °F 31.4 °F 35.6 °F 93% 30.37 in 10.0 mi ENE 8.1 mph - 0.00 in   Clear
6:55 AM 37.4 °F 31.4 °F 35.6 °F 93% 30.36 in 10.0 mi ENE 8.1 mph - 0.00 in   Partly Cloudy
7:15 AM 37.4 °F 31.4 °F 35.6 °F 93% 30.36 in 10.0 mi ENE 8.1 mph - 0.00 in   Scattered Clouds
7:35 AM 37.4 °F 31.4 °F 35.6 °F 93% 30.35 in 10.0 mi East 8.1 mph - 0.00 in   Mostly Cloudy
7:55 AM 37.4 °F 31.4 °F 35.6 °F 93% 30.35 in 10.0 mi East 8.1 mph - 0.00 in   Mostly Cloudy
8:15 AM 37.4 °F 32.1 °F 35.6 °F 93% 30.35 in 10.0 mi East 6.9 mph - 0.00 in   Overcast
8:35 AM 39.2 °F 33.0 °F 35.6 °F 87% 30.36 in 10.0 mi East 9.2 mph - 0.00 in   Overcast
8:55 AM 37.4 °F 31.4 °F 35.6 °F 93% 30.36 in 10.0 mi East 8.1 mph - 0.00 in   Overcast
9:15 AM 39.2 °F 33.6 °F 35.6 °F 87% 30.37 in 8.0 mi East 8.1 mph - 0.00 in   Overcast
9:35 AM 37.4 °F 32.8 °F 37.4 °F 100% 30.37 in 9.0 mi East 5.8 mph - 0.00 in   Overcast
10:15 AM 39.2 °F 34.2 °F 37.4 °F 93% 30.36 in 10.0 mi East 6.9 mph - 0.00 in   Overcast
10:35 AM 39.2 °F 33.6 °F 37.4 °F 93% 30.36 in 8.0 mi East 8.1 mph - 0.00 in   Overcast
10:55 AM 37.4 °F 30.3 °F 37.4 °F 100% 30.35 in 6.0 mi ENE 10.4 mph - 0.00 in   Overcast
11:15 AM 37.4 °F 30.8 °F 37.4 °F 100% 30.34 in 5.0 mi East 9.2 mph - 0.00 in   Overcast
11:35 AM 37.4 °F 28.9 °F 37.4 °F 100% 30.34 in 2.0 mi East 13.8 mph - 0.01 in   Overcast
11:55 AM 37.4 °F 29.3 °F 37.4 °F 100% 30.34 in 2.5 mi East 12.7 mph - 0.02 in   Overcast
12:15 PM 37.4 °F 29.3 °F 37.4 °F 100% 30.33 in 2.5 mi East 12.7 mph - 0.01 in   Overcast
12:35 PM 37.4 °F 29.3 °F 37.4 °F 100% 30.34 in 2.5 mi ENE 12.7 mph - 0.01 in   Overcast
12:55 PM 37.4 °F 29.3 °F 37.4 °F 100% 30.33 in 1.5 mi ENE 12.7 mph - 0.02 in   Overcast
1:15 PM 37.4 °F 29.8 °F 37.4 °F 100% 30.32 in 2.0 mi East 11.5 mph - 0.00 in   Overcast
1:35 PM 37.4 °F 29.8 °F 37.4 °F 100% 30.31 in 2.0 mi ENE 11.5 mph - 0.01 in   Overcast
1:55 PM 37.4 °F 30.8 °F 37.4 °F 100% 30.32 in 4.0 mi ENE 9.2 mph - 0.01 in   Overcast
2:15 PM 37.4 °F 29.8 °F 37.4 °F 100% 30.31 in 3.0 mi East 11.5 mph 17.3 mph 0.00 in   Overcast
2:35 PM 37.4 °F 30.8 °F 37.4 °F 100% 30.31 in 2.5 mi ENE 9.2 mph - 0.00 in   Overcast
2:55 PM 37.4 °F 30.8 °F 37.4 °F 100% 30.31 in 3.0 mi ENE 9.2 mph - 0.00 in   Overcast
3:15 PM 37.4 °F 32.1 °F 37.4 °F 100% 30.32 in 2.0 mi ENE 6.9 mph - 0.00 in   Overcast
3:35 PM 37.4 °F 31.4 °F 37.4 °F 100% 30.32 in 3.0 mi NE 8.1 mph - 0.00 in   Overcast
3:55 PM 37.4 °F 31.4 °F 37.4 °F 100% 30.33 in 2.0 mi NE 8.1 mph - 0.00 in   Overcast
4:15 PM 37.4 °F 31.4 °F 37.4 °F 100% 30.32 in 1.8 mi ENE 8.1 mph - 0.00 in   Overcast
4:35 PM 37.4 °F 31.4 °F 37.4 °F 100% 30.32 in 4.0 mi NE 8.1 mph - 0.00 in   Overcast
4:55 PM 37.4 °F 30.8 °F 37.4 °F 100% 30.32 in 5.0 mi NE 9.2 mph - 0.00 in   Overcast
5:15 PM 37.4 °F 30.8 °F 37.4 °F 100% 30.33 in 10.0 mi NE 9.2 mph - 0.00 in   Overcast
5:35 PM 37.4 °F 31.4 °F 37.4 °F 100% 30.33 in 5.0 mi NE 8.1 mph - 0.00 in   Overcast
5:55 PM 37.4 °F 32.8 °F 37.4 °F 100% 30.32 in 3.0 mi NE 5.8 mph - 0.00 in   Overcast
6:15 PM 37.4 °F 32.8 °F 37.4 °F 100% 30.33 in 3.0 mi NE 5.8 mph - 0.00 in   Overcast
6:35 PM 37.4 °F - 37.4 °F 100% 30.31 in 4.0 mi Calm Calm - 0.00 in   Overcast
6:55 PM 37.4 °F 34.9 °F 37.4 °F 100% 30.32 in 3.0 mi NNE 3.5 mph - 0.00 in   Overcast
7:15 PM 37.4 °F 32.1 °F 37.4 °F 100% 30.33 in 5.0 mi NNE 6.9 mph - 0.00 in   Overcast
7:35 PM 37.4 °F 33.8 °F 37.4 °F 100% 30.33 in 5.0 mi North 4.6 mph - 0.00 in   Overcast
7:55 PM 37.4 °F - 37.4 °F 100% 30.34 in 3.0 mi Calm Calm - 0.00 in   Overcast
8:35 PM 37.4 °F 31.4 °F 37.4 °F 100% 30.36 in 4.0 mi NNE 8.1 mph - 0.01 in   Overcast
8:55 PM 37.4 °F - 37.4 °F 100% 30.35 in 7.0 mi Calm Calm - 0.01 in   Overcast
9:15 PM 37.4 °F - 37.4 °F 100% 30.36 in 7.0 mi Calm Calm - 0.00 in   Overcast
9:35 PM 37.4 °F - 37.4 °F 100% 30.36 in 3.0 mi Calm Calm - 0.00 in   Overcast
9:55 PM 37.4 °F - 37.4 °F 100% 30.35 in 4.0 mi Calm Calm - 0.00 in   Overcast
10:15 PM 39.2 °F - 39.2 °F 100% 30.35 in 6.0 mi Calm Calm - 0.00 in   Overcast
10:55 PM 37.4 °F - 37.4 °F 100% 30.37 in 2.5 mi Calm Calm - 0.00 in   Overcast
11:15 PM 39.2 °F - 39.2 °F 100% 30.38 in 2.0 mi Calm Calm - 0.00 in   Overcast
11:35 PM 39.2 °F - 39.2 °F 100% 30.38 in 1.5 mi Calm Calm - 0.00 in   Overcast
11:55 PM 39.2 °F - 39.2 °F 100% 30.38 in 1.5 mi Calm Calm - 0.00 in   Overcast